Home   Weather   Monaco   Past weeks

Flag for Monaco Past Weather in Monaco, Monaco — Yesterday and Last 2 Weeks

Now
66 °F

Passing clouds.


Feels Like: 66 °F
Forecast: 56 / 70 °F
Wind: 9 mph from Northwest

Location: Nice Airport

Current Time: Sep 30, 2016 at 10:31:58 AM

Latest Report: Sep 30, 2016 at 9:30 AM


Visibility: N/A

Pressure: 30.15 "Hg

Humidity: 60%

Dew Point: 52 °F

Location of MonacoLocation

Past Weather in Monaco — Graph

°F

Monaco Temperature Yesterday

Maximum temperature yesterday: 75 °F (at 1:30 PM)
Minimum temperature yesterday: 63 °F (at 7:00 AM)
Average temperature yesterday: 69 °F

High & Low Weather Summary for the Past Weeks

 TemperatureHumidityPressure
High79 °F (Sep 15, 11:30 AM)88% (Sep 18, 9:00 PM)30.39 "Hg (Sep 18, 9:00 PM)
Low61 °F (Sep 18, 5:00 AM)34% (Sep 16, 2:00 PM)29.77 "Hg (Sep 17, 5:30 PM)
Average70 °F63%30.06 "Hg
* Reported Sep 15 9:00 AM — Sep 30 9:30 AM, Monaco, Weather by CustomWeather, © 2016

Note: Actual official high and low records may vary slightly from our data, if they occured in-between our weather recording intervals... More about our weather records

Advertising

Monaco Weather History for the Previous 24 Hours

Scroll right to see more
 ConditionsComfort  
Time TempWeatherWind HumidityBarometerVisibility
9:30 AM
Fri, Sep 30
66 °FPassing clouds.9 mph60%30.15 "HgN/A
9:00 AM64 °FSunny.10 mph64%30.15 "Hg10 mi
8:30 AM64 °FSunny.13 mph64%30.15 "Hg10 mi
8:00 AM63 °FSunny.12 mph68%30.15 "Hg10 mi
7:30 AM63 °FPassing clouds.12 mph73%30.15 "HgN/A
7:00 AM63 °FPassing clouds.10 mph73%30.15 "HgN/A
6:30 AM63 °FClear.12 mph73%30.12 "Hg10 mi
6:00 AM63 °FClear.12 mph77%30.12 "Hg10 mi
5:23 AM64 °FClear.10 mph73%30.12 "Hg10 mi
5:00 AM64 °FClear.12 mph73%30.12 "Hg10 mi
4:21 AM64 °FClear.12 mph78%30.15 "Hg10 mi
4:00 AM64 °FClear.10 mph78%30.15 "Hg10 mi
3:30 AM64 °FClear.12 mph78%30.15 "Hg10 mi
3:00 AM64 °FClear.9 mph83%30.18 "Hg10 mi
2:30 AM64 °FClear.6 mph83%30.18 "Hg10 mi
2:00 AM64 °FClear.7 mph83%30.18 "Hg10 mi
1:30 AM64 °FClear.8 mph83%30.18 "Hg10 mi
1:00 AM66 °FClear.9 mph83%30.21 "Hg10 mi
12:30 AM66 °FClear.8 mph83%30.21 "Hg10 mi
12:00 AM66 °FClear.8 mph83%30.21 "Hg10 mi
11:30 PM
Thu, Sep 29
68 °FClear.7 mph78%30.21 "Hg10 mi
11:00 PM68 °FClear.6 mph78%30.21 "Hg10 mi
10:30 PM68 °FClear.5 mph78%30.21 "Hg10 mi
10:00 PM70 °FPassing clouds.5 mph78%30.21 "HgN/A
9:30 PM70 °FPassing clouds.6 mph78%30.21 "HgN/A
9:00 PM72 °FPassing clouds.2 mph73%30.21 "HgN/A
8:30 PM72 °FPassing clouds.5 mph78%30.21 "HgN/A
8:00 PM72 °FPassing clouds.6 mph73%30.21 "HgN/A
7:30 PM73 °FPassing clouds.6 mph69%30.21 "HgN/A
7:00 PM73 °FPassing clouds.6 mph69%30.21 "HgN/A
6:30 PM73 °FPassing clouds.9 mph69%30.21 "HgN/A
6:00 PM73 °FPassing clouds.9 mph78%30.21 "HgN/A
5:30 PM73 °FPassing clouds.9 mph74%30.24 "HgN/A
5:00 PM73 °FPassing clouds.9 mph74%30.24 "HgN/A
4:30 PM73 °FPassing clouds.12 mph74%30.24 "HgN/A
4:00 PM75 °FPassing clouds.9 mph65%30.27 "HgN/A
3:30 PM73 °FPassing clouds.9 mph69%30.27 "HgN/A
3:00 PM75 °FPassing clouds.7 mph65%30.27 "HgN/A
2:30 PM73 °FPassing clouds.6 mph74%30.27 "HgN/A
2:00 PM75 °FPassing clouds.7 mph69%30.30 "HgN/A
1:30 PM75 °FPassing clouds.8 mph69%30.30 "HgN/A
1:00 PM73 °FPassing clouds.7 mph74%30.30 "HgN/A
12:30 PM73 °FPassing clouds.7 mph69%30.33 "HgN/A
12:00 PM73 °FPassing clouds.6 mph69%30.33 "HgN/A
11:30 AM73 °FPassing clouds.2 mph69%30.33 "HgN/A
11:00 AM73 °FPassing clouds.3 mph57%30.33 "HgN/A
10:30 AM72 °FScattered clouds.8 mph50%30.33 "HgN/A
10:00 AM70 °FScattered clouds.10 mph53%30.33 "HgN/A
Weather by CustomWeather, © 2016

See weather overviewHow to use our weather pages